Aérodrome :
LOGIN :

S'inscrire | Disclaimer

   EN    FR    IT 

 










Légende :    VFR   VFR Marginal   IFR   IFR Intensif   IFR Très Intensif
Visi : 
Plafond : 
>= 8 km
>= 3000ft
5 à 8 km
1000 à 3000 ft
1500m à 5 km
500 à 1000 ft
800 à 1500m
200 à 500 ft
< 800m
< 200 ft
Symboles :   Orages  Brouillard  Fortes neiges  Fortes précipitations  Vent > 20 kt
SIGMETs :   Divers  Orages  Givrage  Turbulence  Onde Orograph.  Cendres Volcan.






- Altitude de l'aérodrome : 388 ft
- Code IATA : QYR


LFQB - Troyes Barberey

DERNIER METAR :
  • 041630Z AUTO 18006KT 140V220 9999 SCT029 BKN050 BKN072 20/14 Q1012

METARs EXPIRÉS :
  • 041600Z AUTO 18005KT 150V210 9999 -RA SCT034/// SCT040/// BKN050/// ///TCU 20/15 Q1012
  • 041530Z AUTO 14005KT 100V170 9999 -RA ///TCU 20/13 Q1012
  • 041500Z AUTO 10005KT 060V130 9999 ///TCU 20/13 Q1012
  • 041430Z AUTO VRB02KT CAVOK 21/13 Q1012
  • 041400Z AUTO VRB02KT 9999 ///TCU 20/14 Q1012
  • 041330Z AUTO 32003KT 290V350 9999 FEW039 SCT048 OVC064 20/13 Q1012

TAF N/A



MET'MAP, la Météo Aéronautique d'un coup d'oeil ! - Copyright ORBIFLY Décembre 2007 - Disclaimer

ORBIFLY MET'MAP TEAM :

Programmation & Développement : Alexandra Zaïnal
Sur une idée originale de : Baudouin d'Aumeries
Assistance à la programmation : Marc-Olivier Méhu
Soutien technique & logistique : Manuel Goepfert

Contact : metmap@orbifly.com




SOURCES & CREDITS :

   NOAA